SCP
0 0 0 0 0 0 0 0 0 0 0 0 0 0 0 0 0 0 0 0 0 0 0 0 0 0 0 0 0 0 0 0 -0 -0 0 0 0 0 0 -0 0 0 0 0 -0
0 0 0 0 0 0 0 0 0 0 0 0 0 0 0 0 0 0 0 0 0 0 0 0 0 0 0 0 0 0 0 0 0 0 0 0 0 -0 0 0 0 0 0 0 0
0 0 0 0 0 0 0 0 0 0 0 0 0 0 0 0 0 0 0 0 0 0 0 0 0 0 0 0 0 0 0 0 0 0 0 0 0 0 0 0 0 0 0 0 0
0 0 0 0 0 0 0 0 0 0 0 0 0 0 0 0 0 0 0 0 0 0 0 0 0 0 0 0 0 0 0 0 0 0 0 0 0 0 0 0 0 0 0 0 0
0 0 0 0 0 0 0 0 0 0 0 0 0 0 0 0 0 0 0 0 0 0 0 0 0 0 0 0 0 0 0 0 0 0 0 0 0 0 0 0 0 0 0 0 0
0 0 0 0 0 0 0 0 0 0 0 0 0 0 0 0 0 0 0 0 0 0 0 0 0 0 0 0 0 0 0 0 0 0 0 0 0 0 0 0 0 0 0 0 0
0 0 0 0 0 0 0 0 0 0 0 0 0 0 0 0 0 0 0 0 0 0 0 0 0 0 0 0 0 0 0 0 0 0 0 0 0 0 0 0 0 0 0 0 0
0 0 0 0 0 0 0 0 0 0 0 0 0 0 0 0 0 0 0 0 0 0 0 0 0 0 0 0 0 0 0 0 0 0 0 0 0 0 0 0 0 0 0 0 0
0 0 0 0 0 0 0 0 0 0 0 0 0 0 0 0 0 0 0 0 0 0 0 0 0 0 0 0 0 0 0 0 0 0 0 0 0 0 0 0 0 0 0 0 0
0 0 0 0 0 0 0 0 0 0 0 0 0 0 0 0 0 0 0 0 0 0 0 0 0 0 0 0 0 0 0 0 0 0 0 0 0 0 0 0 0 0 0 0 0
0 0 0 0 0 0 0 0 0 0 0 0 0 0 0 0 0 0 0 0 0 0 0 0 0 0 0 0 0 0 0 0 0 0 0 0 0 0 0 0 0 0 0 0 0
0 0 0 0 0 0 0 0 0 0 -0 0 0 0 0 0 0 0 0 0 0 0 0 0 0 0 0 0 0 0 0 0 0 0 0 0 0 0 0 0 0 0 0 0 0
0 0 0 0 0 0 0 0 0 0 0 -0 0 0 0 0 0 0 0 0 0 0 0 0 0 0 0 0 0 0 0 0 0 0 0 0 0 0 0 0 0 0 0 0 0
0 0 0 0 0 0 0 0 0 0 0 -0 -0 0 0 0 0 0 0 0 0 0 0 0 0 0 0 0 0 0 0 0 0 0 0 0 -0 0 0 0 0 0 0 0 0
0 0 0 0 0 0 0 0 0 0 0 0 0 0 0 0 0 0 0 0 0 0 0 0 0 0 0 0 0 0 0 0 0 0 0 0 0 0 0 0 0 0 0 0 0
0 0 0 0 0 0 0 0 0 0 0 0 0 0 0 0 0 0 0 0 0 0 0 0 0 0 0 0 0 0 0 0 0 0 0 0 0 0 0 0 0 0 0 0 0
0 0 0 0 0 0 0 0 0 0 0 0 0 0 0 0 0 0 0 0 0 0 0 0 0 0 0 0 0 0 0 0 0 0 0 0 0 0 0 0 0 0 0 0 0
0 0 0 0 0 0 0 0 0 0 0 0 0 0 0 0 0 0 0 0 0 0 0 0 0 0 0 0 0 0 0 0 0 0 0 0 0 0 0 0 0 0 0 0 0
0 0 0 0 0 0 0 0 0 0 0 0 0 0 0 0 0 0 0 0 0 0 0 0 0 0 0 0 0 0 0 0 0 0 0 0 0 0 0 0 0 0 0 0 0
0 0 0 0 0 0 0 0 0 0 0 0 0 0 0 0 0 0 0 0 0 0 0 0 0 0 0 0 0 0 0 0 0 0 0 0 0 0 0 0 -0 -0 -0 0 0
0 0 0 0 0 0 0 0 0 0 0 0 0 0 0 0 0 0 0 0 0 0 0 0 0 0 0 0 0 0 0 0 0 0 0 0 0 0 0 0 0 0 -0 0 0
0 0 0 0 0 0 0 0 0 0 0 0 0 0 0 0 0 0 0 0 0 0 0 0 0 0 0 0 0 0 0 0 0 0 0 0 0 0 0 0 0 0 0 0 0
0 0 0 0 0 0 0 0 0 0 0 0 0 0 0 0 0 0 0 0 0 0 0 0 0 0 0 0 0 0 0 0 0 0 0 0 0 0 0 0 0 0 0 0 0
0 0 0 0 0 0 0 0 0 0 0 0 0 0 0 0 0 0 0 0 0 0 0 0 0 0 0 0 0 0 0 0 0 0 0 0 0 0 0 0 0 0 0 0 0
0 0 0 0 0 0 0 0 0 0 0 0 0 0 0 0 0 0 0 0 0 0 0 0 0 0 0 0 0 0 0 0 0 0 0 0 0 0 0 0 0 0 0 0 0
0 0 0 0 0 0 0 0 0 0 0 0 0 0 0 0 0 0 0 0 0 0 0 0 0 0 0 0 0 0 0 0 0 0 0 0 0 0 0 0 0 0 0 0 0
0 0 0 0 0 0 0 0 0 0 -0 0 0 0 0 0 0 0 0 0 0 0 0 0 0 0 0 0 0 0 0 0 0 0 0 0 0 0 0 0 0 0 0 0 0
Wind_Speed_500mb
14 13 12 11 9 7 4 3 3 2 2 2 6 4 4 5 5 6 6 8 8 11 10 9 8 8 9 9 7 6 9 5 13 14 8 20 9 16 13 24 16 20 13 13 50
11 10 9 9 6 5 3 4 4 3 4 5 6 6 5 5 6 6 8 9 11 11 11 11 8 7 7 6 5 9 8 17 12 10 8 15 13 26 14 17 9 17 22 27 51
10 8 6 5 5 4 3 4 5 7 6 7 8 8 8 5 5 4 5 8 11 14 12 10 10 8 6 5 3 6 9 10 6 6 12 17 10 16 19 8 25 36 36 44 53
16 12 9 7 6 6 4 6 8 8 9 10 10 10 9 4 6 4 4 4 11 14 13 13 11 6 6 5 3 6 3 6 5 4 11 13 11 12 28 13 20 23 36 45 51
18 16 14 12 11 11 10 9 10 12 12 12 12 11 8 7 5 5 2 5 10 14 15 13 9 7 8 7 4 4 4 4 7 8 7 10 12 11 26 27 18 27 42 45 48
23 21 19 17 16 15 15 16 14 15 15 15 14 13 10 7 6 9 8 7 10 14 14 12 8 9 10 4 4 3 4 5 8 10 9 10 6 8 21 29 26 35 45 47 48
26 25 24 22 20 19 18 18 20 19 18 18 17 17 17 15 9 13 13 13 13 12 11 10 9 5 11 6 4 2 5 9 12 12 6 10 10 20 28 32 33 40 46 47 48
19 22 24 24 22 20 20 21 21 23 23 21 20 18 13 15 19 20 16 13 14 14 11 9 7 9 5 12 9 6 9 5 4 13 3 13 16 17 41 41 48 47 50 52 53
12 13 16 19 20 19 17 18 23 24 28 24 22 15 14 15 26 25 25 18 18 16 13 10 11 6 8 10 8 12 6 8 15 18 5 9 12 5 15 40 51 57 58 58 58
16 11 10 11 8 7 10 13 20 26 30 28 29 13 24 11 16 26 26 21 15 18 13 9 5 7 6 7 10 12 8 8 9 6 7 7 23 21 14 33 58 59 62 65 66
41 37 25 18 14 13 20 21 15 11 11 19 6 11 10 15 15 19 28 26 17 14 9 4 6 15 26 17 7 9 8 10 7 6 8 15 21 25 34 38 47 55 62 72 76
41 39 41 44 45 46 34 19 18 16 19 29 41 43 31 15 14 27 33 22 14 9 12 8 15 20 9 8 8 4 6 12 11 9 12 15 25 24 13 28 62 70 73 80 79
35 46 34 37 42 42 31 24 18 16 12 18 44 49 54 44 24 35 48 23 9 12 16 16 10 11 16 9 11 11 13 10 15 6 7 9 16 17 23 42 63 69 77 82 90
33 33 41 31 35 38 32 19 19 10 5 12 13 21 48 39 19 45 56 22 9 24 13 13 9 10 10 11 17 14 17 13 10 4 9 5 14 10 11 21 20 69 79 95 98
30 29 30 41 31 28 20 21 20 16 9 5 9 5 18 31 19 30 63 33 16 17 15 18 16 13 13 15 18 14 9 13 6 6 5 9 6 7 2 15 29 46 81 91 85
25 27 28 29 53 30 28 38 37 8 18 7 6 7 12 6 4 12 32 13 8 10 6 9 5 13 14 4 13 15 11 11 8 6 6 18 16 11 13 17 12 44 77 75 66
27 27 34 36 53 37 44 48 8 11 6 9 9 11 8 8 3 5 13 18 20 12 23 5 10 6 9 11 5 7 12 5 7 1 18 6 11 36 12 20 25 32 66 53 35
31 33 34 46 50 44 46 4 8 14 15 7 3 7 14 14 6 10 11 17 19 1 5 20 19 23 15 19 15 15 18 12 15 9 11 3 14 13 21 40 51 59 65 57 47
33 35 46 44 48 47 50 20 18 16 12 15 4 5 9 5 11 10 11 11 17 26 22 13 13 1 3 7 21 12 16 9 4 4 3 11 15 16 21 24 30 56 52 53 41
28 32 59 45 33 54 21 30 15 17 13 12 25 20 19 13 16 17 17 11 11 30 9 9 7 1 1 7 4 13 15 4 2 6 10 10 12 15 13 21 31 22 51 45 34
23 14 23 28 38 32 26 14 17 20 22 17 29 19 17 16 20 13 11 6 11 12 48 7 8 3 6 15 22 6 11 6 9 11 11 5 15 16 27 21 20 24 41 39 37
26 8 16 35 25 16 27 29 13 19 44 12 6 19 21 20 15 16 25 20 28 17 23 18 9 11 18 5 4 7 7 14 9 10 9 4 30 7 16 17 23 34 27 20 23
16 35 27 34 17 25 21 29 44 13 19 18 15 15 15 15 11 14 13 22 22 22 21 17 8 4 12 5 7 8 9 15 8 6 25 10 31 5 1 9 22 29 21 16 16
11 6 35 45 42 22 32 36 31 40 48 32 16 30 15 24 23 13 18 10 46 36 35 22 9 18 33 6 12 13 17 22 31 16 28 34 49 8 13 15 16 33 28 26 19
26 12 14 7 28 27 22 13 41 27 34 58 29 43 31 24 35 30 22 5 13 26 15 21 17 12 31 20 10 15 18 32 40 64 21 69 39 53 29 20 36 46 44 37 33
23 10 16 18 25 17 40 37 32 17 18 38 27 22 36 26 22 18 33 27 31 10 21 18 13 22 51 45 20 27 19 44 56 58 48 64 55 6 19 29 27 60 67 64 55
28 37 10 22 15 14 25 35 49 45 30 48 29 14 38 39 56 60 39 28 20 31 17 22 14 13 32 16 22 14 61 42 23 40 45 45 77 15 35 32 54 65 61 62 64
Wind_Direction_500mb
165 161 163 165 172 183 201 216 219 233 245 312 294 302 283 287 259 216 201 185 188 181 171 157 144 121 111 86 87 112 68 151 192 159 232 168 146 159 169 153 178 193 202 207 185
175 175 175 170 173 180 224 258 277 294 301 281 295 304 306 301 263 209 208 224 199 186 179 167 150 131 87 79 51 79 103 199 189 197 223 183 175 160 160 161 196 191 197 184 187
188 198 207 208 198 210 232 270 292 296 293 295 304 310 316 309 202 221 203 203 201 189 179 172 148 123 88 85 65 125 167 192 205 232 231 174 185 174 158 226 204 199 187 181 189
195 209 227 244 257 260 270 292 297 300 304 306 306 309 307 284 186 138 104 158 178 179 178 170 157 113 88 102 71 97 144 162 189 205 177 172 171 194 199 216 224 213 202 194 198
222 222 230 248 262 281 290 293 302 307 307 308 307 307 298 255 217 190 142 115 151 163 166 161 142 122 131 142 116 101 184 182 194 226 215 192 205 217 227 234 226 209 201 205 207
230 235 242 250 262 274 287 296 299 302 304 305 305 305 298 270 213 209 202 174 154 156 161 159 145 119 109 108 116 136 158 240 224 222 227 196 219 208 230 230 218 206 205 207 212
240 237 241 246 257 268 277 288 295 299 300 299 303 304 285 259 235 218 209 194 191 186 184 165 142 147 141 101 101 46 328 338 232 209 229 194 286 239 234 217 210 200 205 210 214
253 244 242 246 249 260 275 286 292 297 298 297 297 300 268 255 231 213 198 203 206 205 203 195 168 140 110 126 35 54 48 10 320 159 236 157 261 261 232 214 212 213 214 218 222
238 262 260 248 255 261 268 288 296 298 294 292 293 290 267 250 233 221 220 223 215 203 193 186 170 123 126 93 19 6 238 210 314 200 130 176 265 274 218 215 224 222 224 227 230
232 231 263 257 232 263 306 315 310 302 286 283 267 282 245 244 230 219 213 203 197 187 166 170 123 77 41 102 218 202 215 236 235 207 174 228 262 268 257 222 233 234 232 234 236
247 248 249 246 241 263 300 308 314 296 241 225 231 222 283 233 212 200 197 185 172 167 157 123 118 207 205 200 147 147 186 214 238 226 174 227 253 261 242 233 241 241 238 238 240
241 245 254 260 258 265 282 273 257 267 285 250 250 249 250 230 216 198 185 176 172 170 120 48 234 228 154 182 194 166 211 252 280 247 184 263 255 258 214 232 235 240 240 241 243
248 237 240 249 257 253 257 252 252 264 269 259 244 241 234 230 219 208 188 188 154 140 190 177 216 159 159 163 178 226 200 218 226 348 243 327 279 241 250 236 251 251 253 254 251
251 244 235 257 242 246 247 241 247 250 296 264 217 234 214 210 239 222 197 180 186 191 174 237 236 150 172 198 161 235 205 192 218 124 244 151 284 262 247 255 234 252 252 255 253
256 249 235 246 235 220 239 245 208 144 271 236 184 196 188 179 145 188 190 199 175 177 145 230 182 175 192 200 171 226 137 171 155 166 18 207 262 250 36 260 255 252 254 257 257
247 244 232 247 229 231 218 164 147 95 238 315 139 146 125 206 85 123 178 181 174 142 278 233 202 173 202 98 156 145 80 57 59 104 255 224 189 216 197 223 241 249 256 262 266
241 238 227 229 226 212 177 156 107 184 325 231 187 170 144 156 112 138 164 187 177 153 225 143 221 189 159 102 70 126 96 309 323 19 242 46 177 253 281 254 230 253 266 277 274
245 241 234 226 223 230 196 195 245 190 210 48 37 105 172 152 191 166 138 209 243 163 115 198 253 169 188 191 166 189 165 173 210 205 269 86 232 249 228 249 252 259 266 273 273
260 252 248 232 224 216 183 224 201 198 209 157 88 153 224 168 155 137 215 240 204 192 197 174 254 238 127 147 157 191 208 201 23 110 359 226 280 286 256 266 269 258 264 264 269
278 272 254 241 229 215 217 218 221 183 169 170 209 168 203 187 161 181 174 217 228 200 208 222 274 4 201 119 35 172 157 82 9 233 251 266 262 225 247 242 249 267 262 266 267
260 271 274 249 221 212 244 202 224 230 196 184 215 196 207 180 186 193 219 247 210 210 194 164 183 268 130 210 171 148 203 188 145 166 195 285 252 217 216 207 221 243 258 275 277
237 242 222 190 189 212 227 224 224 201 222 261 243 199 197 178 189 190 213 201 203 149 180 209 191 204 201 253 210 207 237 160 148 228 246 179 260 180 205 206 213 249 260 273 293
232 243 242 210 214 220 230 233 238 256 206 198 245 218 196 181 213 211 210 213 187 167 174 171 218 325 328 25 353 212 194 197 109 76 233 159 262 19 148 268 227 236 256 269 272
218 247 224 243 249 228 227 240 239 229 235 233 247 218 207 215 210 202 224 248 199 201 199 176 192 201 233 198 147 193 194 200 203 220 235 235 253 262 270 251 265 253 255 260 258
200 221 222 207 232 238 244 246 235 239 228 207 225 243 213 231 225 229 223 253 196 222 197 148 234 244 258 258 206 196 196 198 209 228 201 252 244 251 233 223 239 260 269 254 242
191 196 210 250 281 241 241 243 249 262 230 225 234 233 230 231 223 229 223 207 226 191 176 165 236 228 257 249 238 245 220 217 215 230 234 255 263 114 263 251 251 252 256 258 252
249 218 238 232 229 243 245 237 244 252 243 246 268 284 243 237 247 239 228 235 218 215 185 157 190 185 253 242 225 251 239 230 217 226 217 238 248 223 260 242 248 256 255 254 258
Wind_Speed_850mb
14 13 12 11 9 7 4 3 3 2 2 2 6 4 4 5 5 6 6 8 8 11 10 9 8 8 9 9 7 6 9 5 13 14 8 20 9 16 13 24 16 20 13 13 50
11 10 9 9 6 5 3 4 4 3 4 5 6 6 5 5 6 6 8 9 11 11 11 11 8 7 7 6 5 9 8 17 12 10 8 15 13 26 14 17 9 17 22 27 51
10 8 6 5 5 4 3 4 5 7 6 7 8 8 8 5 5 4 5 8 11 14 12 10 10 8 6 5 3 6 9 10 6 6 12 17 10 16 19 8 25 36 36 44 53
16 12 9 7 6 6 4 6 8 8 9 10 10 10 9 4 6 4 4 4 11 14 13 13 11 6 6 5 3 6 3 6 5 4 11 13 11 12 28 13 20 23 36 45 51
18 16 14 12 11 11 10 9 10 12 12 12 12 11 8 7 5 5 2 5 10 14 15 13 9 7 8 7 4 4 4 4 7 8 7 10 12 11 26 27 18 27 42 45 48
23 21 19 17 16 15 15 16 14 15 15 15 14 13 10 7 6 9 8 7 10 14 14 12 8 9 10 4 4 3 4 5 8 10 9 10 6 8 21 29 26 35 45 47 48
26 25 24 22 20 19 18 18 20 19 18 18 17 17 17 15 9 13 13 13 13 12 11 10 9 5 11 6 4 2 5 9 12 12 6 10 10 20 28 32 33 40 46 47 48
19 22 24 24 22 20 20 21 21 23 23 21 20 18 13 15 19 20 16 13 14 14 11 9 7 9 5 12 9 6 9 5 4 13 3 13 16 17 41 41 48 47 50 52 53
12 13 16 19 20 19 17 18 23 24 28 24 22 15 14 15 26 25 25 18 18 16 13 10 11 6 8 10 8 12 6 8 15 18 5 9 12 5 15 40 51 57 58 58 58
16 11 10 11 8 7 10 13 20 26 30 28 29 13 24 11 16 26 26 21 15 18 13 9 5 7 6 7 10 12 8 8 9 6 7 7 23 21 14 33 58 59 62 65 66
41 37 25 18 14 13 20 21 15 11 11 19 6 11 10 15 15 19 28 26 17 14 9 4 6 15 26 17 7 9 8 10 7 6 8 15 21 25 34 38 47 55 62 72 76
41 39 41 44 45 46 34 19 18 16 19 29 41 43 31 15 14 27 33 22 14 9 12 8 15 20 9 8 8 4 6 12 11 9 12 15 25 24 13 28 62 70 73 80 79
35 46 34 37 42 42 31 24 18 16 12 18 44 49 54 44 24 35 48 23 9 12 16 16 10 11 16 9 11 11 13 10 15 6 7 9 16 17 23 42 63 69 77 82 90
33 33 41 31 35 38 32 19 19 10 5 12 13 21 48 39 19 45 56 22 9 24 13 13 9 10 10 11 17 14 17 13 10 4 9 5 14 10 11 21 20 69 79 95 98
30 29 30 41 31 28 20 21 20 16 9 5 9 5 18 31 19 30 63 33 16 17 15 18 16 13 13 15 18 14 9 13 6 6 5 9 6 7 2 15 29 46 81 91 85
25 27 28 29 53 30 28 38 37 8 18 7 6 7 12 6 4 12 32 13 8 10 6 9 5 13 14 4 13 15 11 11 8 6 6 18 16 11 13 17 12 44 77 75 66
27 27 34 36 53 37 44 48 8 11 6 9 9 11 8 8 3 5 13 18 20 12 23 5 10 6 9 11 5 7 12 5 7 1 18 6 11 36 12 20 25 32 66 53 35
31 33 34 46 50 44 46 4 8 14 15 7 3 7 14 14 6 10 11 17 19 1 5 20 19 23 15 19 15 15 18 12 15 9 11 3 14 13 21 40 51 59 65 57 47
33 35 46 44 48 47 50 20 18 16 12 15 4 5 9 5 11 10 11 11 17 26 22 13 13 1 3 7 21 12 16 9 4 4 3 11 15 16 21 24 30 56 52 53 41
28 32 59 45 33 54 21 30 15 17 13 12 25 20 19 13 16 17 17 11 11 30 9 9 7 1 1 7 4 13 15 4 2 6 10 10 12 15 13 21 31 22 51 45 34
23 14 23 28 38 32 26 14 17 20 22 17 29 19 17 16 20 13 11 6 11 12 48 7 8 3 6 15 22 6 11 6 9 11 11 5 15 16 27 21 20 24 41 39 37
26 8 16 35 25 16 27 29 13 19 44 12 6 19 21 20 15 16 25 20 28 17 23 18 9 11 18 5 4 7 7 14 9 10 9 4 30 7 16 17 23 34 27 20 23
16 35 27 34 17 25 21 29 44 13 19 18 15 15 15 15 11 14 13 22 22 22 21 17 8 4 12 5 7 8 9 15 8 6 25 10 31 5 1 9 22 29 21 16 16
11 6 35 45 42 22 32 36 31 40 48 32 16 30 15 24 23 13 18 10 46 36 35 22 9 18 33 6 12 13 17 22 31 16 28 34 49 8 13 15 16 33 28 26 19
26 12 14 7 28 27 22 13 41 27 34 58 29 43 31 24 35 30 22 5 13 26 15 21 17 12 31 20 10 15 18 32 40 64 21 69 39 53 29 20 36 46 44 37 33
23 10 16 18 25 17 40 37 32 17 18 38 27 22 36 26 22 18 33 27 31 10 21 18 13 22 51 45 20 27 19 44 56 58 48 64 55 6 19 29 27 60 67 64 55
28 37 10 22 15 14 25 35 49 45 30 48 29 14 38 39 56 60 39 28 20 31 17 22 14 13 32 16 22 14 61 42 23 40 45 45 77 15 35 32 54 65 61 62 64
Wind_Direction_850mb
165 161 163 165 172 183 201 216 219 233 245 312 294 302 283 287 259 216 201 185 188 181 171 157 144 121 111 86 87 112 68 151 192 159 232 168 146 159 169 153 178 193 202 207 185
175 175 175 170 173 180 224 258 277 294 301 281 295 304 306 301 263 209 208 224 199 186 179 167 150 131 87 79 51 79 103 199 189 197 223 183 175 160 160 161 196 191 197 184 187
188 198 207 208 198 210 232 270 292 296 293 295 304 310 316 309 202 221 203 203 201 189 179 172 148 123 88 85 65 125 167 192 205 232 231 174 185 174 158 226 204 199 187 181 189
195 209 227 244 257 260 270 292 297 300 304 306 306 309 307 284 186 138 104 158 178 179 178 170 157 113 88 102 71 97 144 162 189 205 177 172 171 194 199 216 224 213 202 194 198
222 222 230 248 262 281 290 293 302 307 307 308 307 307 298 255 217 190 142 115 151 163 166 161 142 122 131 142 116 101 184 182 194 226 215 192 205 217 227 234 226 209 201 205 207
230 235 242 250 262 274 287 296 299 302 304 305 305 305 298 270 213 209 202 174 154 156 161 159 145 119 109 108 116 136 158 240 224 222 227 196 219 208 230 230 218 206 205 207 212
240 237 241 246 257 268 277 288 295 299 300 299 303 304 285 259 235 218 209 194 191 186 184 165 142 147 141 101 101 46 328 338 232 209 229 194 286 239 234 217 210 200 205 210 214
253 244 242 246 249 260 275 286 292 297 298 297 297 300 268 255 231 213 198 203 206 205 203 195 168 140 110 126 35 54 48 10 320 159 236 157 261 261 232 214 212 213 214 218 222
238 262 260 248 255 261 268 288 296 298 294 292 293 290 267 250 233 221 220 223 215 203 193 186 170 123 126 93 19 6 238 210 314 200 130 176 265 274 218 215 224 222 224 227 230
232 231 263 257 232 263 306 315 310 302 286 283 267 282 245 244 230 219 213 203 197 187 166 170 123 77 41 102 218 202 215 236 235 207 174 228 262 268 257 222 233 234 232 234 236
247 248 249 246 241 263 300 308 314 296 241 225 231 222 283 233 212 200 197 185 172 167 157 123 118 207 205 200 147 147 186 214 238 226 174 227 253 261 242 233 241 241 238 238 240
241 245 254 260 258 265 282 273 257 267 285 250 250 249 250 230 216 198 185 176 172 170 120 48 234 228 154 182 194 166 211 252 280 247 184 263 255 258 214 232 235 240 240 241 243
248 237 240 249 257 253 257 252 252 264 269 259 244 241 234 230 219 208 188 188 154 140 190 177 216 159 159 163 178 226 200 218 226 348 243 327 279 241 250 236 251 251 253 254 251
251 244 235 257 242 246 247 241 247 250 296 264 217 234 214 210 239 222 197 180 186 191 174 237 236 150 172 198 161 235 205 192 218 124 244 151 284 262 247 255 234 252 252 255 253
256 249 235 246 235 220 239 245 208 144 271 236 184 196 188 179 145 188 190 199 175 177 145 230 182 175 192 200 171 226 137 171 155 166 18 207 262 250 36 260 255 252 254 257 257
247 244 232 247 229 231 218 164 147 95 238 315 139 146 125 206 85 123 178 181 174 142 278 233 202 173 202 98 156 145 80 57 59 104 255 224 189 216 197 223 241 249 256 262 266
241 238 227 229 226 212 177 156 107 184 325 231 187 170 144 156 112 138 164 187 177 153 225 143 221 189 159 102 70 126 96 309 323 19 242 46 177 253 281 254 230 253 266 277 274
245 241 234 226 223 230 196 195 245 190 210 48 37 105 172 152 191 166 138 209 243 163 115 198 253 169 188 191 166 189 165 173 210 205 269 86 232 249 228 249 252 259 266 273 273
260 252 248 232 224 216 183 224 201 198 209 157 88 153 224 168 155 137 215 240 204 192 197 174 254 238 127 147 157 191 208 201 23 110 359 226 280 286 256 266 269 258 264 264 269
278 272 254 241 229 215 217 218 221 183 169 170 209 168 203 187 161 181 174 217 228 200 208 222 274 4 201 119 35 172 157 82 9 233 251 266 262 225 247 242 249 267 262 266 267
260 271 274 249 221 212 244 202 224 230 196 184 215 196 207 180 186 193 219 247 210 210 194 164 183 268 130 210 171 148 203 188 145 166 195 285 252 217 216 207 221 243 258 275 277
237 242 222 190 189 212 227 224 224 201 222 261 243 199 197 178 189 190 213 201 203 149 180 209 191 204 201 253 210 207 237 160 148 228 246 179 260 180 205 206 213 249 260 273 293
232 243 242 210 214 220 230 233 238 256 206 198 245 218 196 181 213 211 210 213 187 167 174 171 218 325 328 25 353 212 194 197 109 76 233 159 262 19 148 268 227 236 256 269 272
218 247 224 243 249 228 227 240 239 229 235 233 247 218 207 215 210 202 224 248 199 201 199 176 192 201 233 198 147 193 194 200 203 220 235 235 253 262 270 251 265 253 255 260 258
200 221 222 207 232 238 244 246 235 239 228 207 225 243 213 231 225 229 223 253 196 222 197 148 234 244 258 258 206 196 196 198 209 228 201 252 244 251 233 223 239 260 269 254 242
191 196 210 250 281 241 241 243 249 262 230 225 234 233 230 231 223 229 223 207 226 191 176 165 236 228 257 249 238 245 220 217 215 230 234 255 263 114 263 251 251 252 256 258 252
249 218 238 232 229 243 245 237 244 252 243 246 268 284 243 237 247 239 228 235 218 215 185 157 190 185 253 242 225 251 239 230 217 226 217 238 248 223 260 242 248 256 255 254 258